• In Netherlands
  • List of Countries
  • For 7 days
  • Water Temperature
  • Satellite Maps
  • Weather Map
  • Weather Widgets
  • user-avatar
    Login

    Hourly Weather Giumri

    Today, 22 July, Saturday

    Time Temperature Precipitation Wind Pressure Humidity
    00:00 +18°C° 0 mm 2 mps 634 mmHg 58%
    01:00 +17°C° 0 mm 2 mps 634 mmHg 57%
    02:00 +17°C° 0 mm 2 mps 634 mmHg 56%
    03:00 +16°C° 0 mm 2 mps 634 mmHg 55%
    04:00 +16°C° 0 mm 2 mps 634 mmHg 56%
    05:00 +17°C° 0 mm 2 mps 634 mmHg 57%
    06:00 +17°C° 0 mm 2 mps 635 mmHg 58%
    07:00 +19°C° 0 mm 2 mps 635 mmHg 53%
    08:00 +23°C° 0 mm 2 mps 636 mmHg 48%
    09:00 +25°C° 0 mm 2 mps 637 mmHg 43%
    10:00 +27°C° 0 mm 2 mps 637 mmHg 40%
    11:00 +28°C° 0 mm 3 mps 637 mmHg 38%
    12:00 +30°C° 0 mm 3 mps 637 mmHg 36%
    13:00 +30°C° 0 mm 3 mps 637 mmHg 35%
    14:00 +31°C° 0 mm 3 mps 637 mmHg 35%
    15:00 +31°C° 0 mm 3 mps 636 mmHg 34%
    16:00 +30°C° 0 mm 3 mps 636 mmHg 40%
    17:00 +28°C° 0 mm 3 mps 636 mmHg 47%
    18:00 +27°C° 0 mm 4 mps 635 mmHg 53%
    19:00 +25°C° 0 mm 3 mps 635 mmHg 58%
    20:00 +21°C° 0 mm 3 mps 634 mmHg 64%
    21:00 +19°C° 0 mm 3 mps 634 mmHg 70%
    22:00 +18°C° 0 mm 3 mps 634 mmHg 68%
    23:00 +18°C° 0 mm 3 mps 634 mmHg 66%

    Tomorrow, 23 July, Sunday

    Time Temperature Precipitation Wind Pressure Humidity
    00:00 +17°C° 0 mm 2 mps 634 mmHg 64%
    01:00 +17°C° 0 mm 2 mps 634 mmHg 64%
    02:00 +16°C° 0 mm 2 mps 634 mmHg 64%
    03:00 +16°C° 0 mm 2 mps 633 mmHg 65%
    04:00 +16°C° 0 mm 2 mps 633 mmHg 65%
    05:00 +16°C° 0 mm 2 mps 633 mmHg 65%
    06:00 +16°C° 0 mm 2 mps 634 mmHg 66%
    07:00 +19°C° 0 mm 2 mps 634 mmHg 59%
    08:00 +21°C° 0 mm 2 mps 635 mmHg 52%
    09:00 +25°C° 0 mm 2 mps 635 mmHg 46%
    10:00 +26°C° 0 mm 2 mps 635 mmHg 44%
    11:00 +27°C° 0 mm 2 mps 635 mmHg 42%
    12:00 +29°C° 0 mm 2 mps 635 mmHg 41%
    13:00 +29°C° 0.1 mm 2 mps 635 mmHg 42%
    14:00 +29°C° 0.1 mm 3 mps 635 mmHg 44%
    15:00 +29°C° 0.1 mm 3 mps 634 mmHg 45%
    16:00 +28°C° 0.5 mm 3 mps 634 mmHg 50%
    17:00 +27°C° 0.5 mm 4 mps 634 mmHg 56%
    18:00 +26°C° 0.5 mm 4 mps 633 mmHg 61%
    19:00 +23°C° 0.5 mm 4 mps 633 mmHg 67%
    20:00 +21°C° 0.5 mm 4 mps 633 mmHg 72%
    21:00 +19°C° 0.5 mm 3 mps 633 mmHg 78%
    22:00 +18°C° 0.1 mm 3 mps 633 mmHg 81%
    23:00 +18°C° 0.1 mm 3 mps 633 mmHg 83%

    Day after tomorrow, 24 July, Monday

    Time Temperature Precipitation Wind Pressure Humidity
    00:00 +17°C° 0.1 mm 3 mps 633 mmHg 86%
    01:00 +17°C° 0 mm 3 mps 633 mmHg 88%
    02:00 +16°C° 0 mm 3 mps 633 mmHg 89%
    03:00 +16°C° 0 mm 2 mps 632 mmHg 91%
    04:00 +16°C° 0 mm 2 mps 632 mmHg 89%
    05:00 +16°C° 0 mm 2 mps 632 mmHg 88%
    06:00 +16°C° 0 mm 2 mps 632 mmHg 87%
    07:00 +18°C° 0 mm 2 mps 633 mmHg 76%
    08:00 +20°C° 0 mm 2 mps 633 mmHg 66%
    09:00 +24°C° 0 mm 2 mps 634 mmHg 55%
    10:00 +25°C° 0 mm 2 mps 634 mmHg 51%
    11:00 +26°C° 0 mm 3 mps 634 mmHg 48%
    12:00 +28°C° 0 mm 3 mps 634 mmHg 44%
    13:00 +28°C° 0.1 mm 3 mps 633 mmHg 44%
    14:00 +29°C° 0.1 mm 3 mps 633 mmHg 44%
    15:00 +29°C° 0.1 mm 3 mps 633 mmHg 44%
    16:00 +28°C° 0.8 mm 3 mps 633 mmHg 49%
    17:00 +27°C° 0.8 mm 3 mps 632 mmHg 53%
    18:00 +26°C° 0.8 mm 3 mps 632 mmHg 57%
    19:00 +24°C° 0.1 mm 3 mps 632 mmHg 63%
    20:00 +21°C° 0.1 mm 3 mps 632 mmHg 68%
    21:00 +19°C° 0.1 mm 3 mps 632 mmHg 73%
    22:00 +18°C° 0 mm 2 mps 632 mmHg 75%
    23:00 +17°C° 0 mm 2 mps 631 mmHg 76%

    25 July, Tuesday

    Time Temperature Precipitation Wind Pressure Humidity
    00:00 +17°C° 0 mm 2 mps 631 mmHg 77%
    01:00 +16°C° 0 mm 2 mps 631 mmHg 78%
    02:00 +16°C° 0 mm 2 mps 631 mmHg 78%
    03:00 +16°C° 0 mm 2 mps 631 mmHg 79%
    04:00 +16°C° 0 mm 2 mps 631 mmHg 77%
    05:00 +16°C° 0 mm 2 mps 631 mmHg 75%
    06:00 +16°C° 0 mm 2 mps 631 mmHg 74%
    07:00 +19°C° 0 mm 2 mps 632 mmHg 66%
    08:00 +21°C° 0 mm 2 mps 632 mmHg 58%
    09:00 +25°C° 0 mm 2 mps 633 mmHg 51%
    10:00 +26°C° 0 mm 2 mps 633 mmHg 46%
    11:00 +28°C° 0 mm 2 mps 633 mmHg 41%
    12:00 +29°C° 0 mm 3 mps 633 mmHg 37%
    13:00 +30°C° 0.1 mm 3 mps 633 mmHg 37%
    14:00 +30°C° 0.1 mm 3 mps 632 mmHg 37%
    15:00 +30°C° 0.1 mm 3 mps 632 mmHg 37%
    16:00 +29°C° 0.2 mm 2 mps 632 mmHg 42%
    17:00 +28°C° 0.2 mm 2 mps 632 mmHg 46%
    18:00 +27°C° 0.2 mm 2 mps 632 mmHg 51%
    19:00 +25°C° 0.1 mm 2 mps 632 mmHg 60%
    20:00 +21°C° 0.1 mm 3 mps 632 mmHg 68%
    21:00 +19°C° 0.1 mm 3 mps 632 mmHg 77%
    22:00 +19°C° 0 mm 3 mps 632 mmHg 76%
    23:00 +18°C° 0 mm 2 mps 632 mmHg 75%

    26 July, Wednesday

    Time Temperature Precipitation Wind Pressure Humidity
    00:00 +17°C° 0 mm 2 mps 631 mmHg 74%
    01:00 +17°C° 0 mm 2 mps 631 mmHg 73%
    02:00 +17°C° 0 mm 2 mps 631 mmHg 72%
    03:00 +16°C° 0 mm 2 mps 631 mmHg 71%
    04:00 +18°C° 0 mm 1 mps 631 mmHg 71%
    05:00 +18°C° 0 mm 1 mps 632 mmHg 70%
    06:00 +18°C° 0 mm 1 mps 632 mmHg 70%
    07:00 +21°C° 0 mm 1 mps 633 mmHg 62%
    08:00 +24°C° 0 mm 1 mps 633 mmHg 53%
    09:00 +26°C° 0 mm 1 mps 634 mmHg 45%
    10:00 +27°C° 0 mm 1 mps 634 mmHg 42%
    11:00 +29°C° 0 mm 1 mps 634 mmHg 39%
    12:00 +30°C° 0 mm 1 mps 634 mmHg 36%
    13:00 +30°C° 0 mm 1 mps 634 mmHg 35%
    14:00 +30°C° 0 mm 1 mps 634 mmHg 34%
    15:00 +31°C° 0 mm 1 mps 634 mmHg 34%
    16:00 +30°C° 0.1 mm 2 mps 634 mmHg 39%
    17:00 +29°C° 0.1 mm 2 mps 634 mmHg 44%
    18:00 +28°C° 0.1 mm 3 mps 634 mmHg 48%
    19:00 +26°C° 0.3 mm 3 mps 634 mmHg 57%
    20:00 +24°C° 0.3 mm 3 mps 634 mmHg 65%
    21:00 +20°C° 0.3 mm 3 mps 633 mmHg 73%
    22:00 +20°C° 0.1 mm 2 mps 633 mmHg 74%
    23:00 +19°C° 0.1 mm 2 mps 634 mmHg 75%

    27 July, Thursday

    Time Temperature Precipitation Wind Pressure Humidity
    00:00 +19°C° 0.1 mm 2 mps 634 mmHg 76%
    01:00 +18°C° 0.1 mm 2 mps 634 mmHg 76%
    02:00 +18°C° 0.1 mm 2 mps 634 mmHg 76%
    03:00 +18°C° 0.1 mm 1 mps 634 mmHg 76%
    04:00 +19°C° 0 mm 1 mps 634 mmHg 76%
    05:00 +19°C° 0 mm 1 mps 634 mmHg 75%
    06:00 +19°C° 0 mm 1 mps 634 mmHg 74%
    07:00 +22°C° 0 mm 1 mps 635 mmHg 66%
    08:00 +24°C° 0 mm 1 mps 635 mmHg 57%
    09:00 +26°C° 0 mm 1 mps 636 mmHg 49%
    10:00 +28°C° 0 mm 2 mps 636 mmHg 45%
    11:00 +29°C° 0 mm 2 mps 636 mmHg 40%
    12:00 +31°C° 0 mm 2 mps 636 mmHg 36%
    13:00 +31°C° 0 mm 2 mps 636 mmHg 35%
    14:00 +31°C° 0 mm 2 mps 636 mmHg 34%
    15:00 +32°C° 0 mm 2 mps 636 mmHg 33%
    16:00 +31°C° 0.2 mm 2 mps 636 mmHg 39%
    17:00 +30°C° 0.2 mm 2 mps 635 mmHg 44%
    18:00 +29°C° 0.2 mm 2 mps 635 mmHg 50%
    19:00 +26°C° 0.1 mm 2 mps 635 mmHg 57%
    20:00 +24°C° 0.1 mm 2 mps 635 mmHg 65%
    21:00 +21°C° 0.1 mm 2 mps 635 mmHg 73%
    22:00 +20°C° 0 mm 2 mps 635 mmHg 73%
    23:00 +20°C° 0 mm 2 mps 635 mmHg 73%
    Show more